Wind_Speed
27 26 26 25 25 24 24 23 23 22 22 22 21 21 21 20 20 19 19 18 18 17 18 18 19 20 21 21 22 21 18 15 14 13 13 14 14 13 12 12 11 10 10 10 10 10 11 11 12 12 12 11 12 12 9 10 16 22 27 32 35 36 36 36 36 36 36 37 37 36 36 36 35 36 37 37 37 36 33 33 33 34 34 33 32 31 30 28
28 27 27 26 26 26 25 25 25 24 24 24 24 23 23 23 22 22 22 21 21 20 19 19 20 20 21 23 23 23 21 18 17 14 12 13 13 14 14 14 13 11 11 10 10 10 10 11 11 12 13 12 11 12 12 10 10 17 23 28 32 34 36 36 36 36 36 37 37 36 35 35 34 35 36 37 37 37 34 33 33 33 33 31 29 28 27 26
29 29 29 28 28 28 28 28 27 27 27 26 26 26 26 26 25 25 25 24 24 23 22 22 21 22 22 23 24 25 25 20 19 18 15 12 12 14 16 16 15 14 12 11 11 10 10 11 11 12 13 14 13 12 12 12 10 10 18 25 29 31 32 33 34 35 36 36 37 36 36 35 34 34 35 36 37 36 36 36 35 33 33 31 29 28 27 26
31 31 31 31 31 31 30 30 30 30 30 30 29 29 29 28 28 28 27 26 26 26 25 24 23 23 23 24 26 27 27 23 20 21 19 14 13 14 16 17 16 16 16 15 13 11 11 11 11 12 13 14 14 14 13 13 13 9 10 18 26 30 30 31 32 33 34 35 36 36 35 34 34 34 34 34 34 33 34 35 34 33 32 31 30 28 27 25
33 33 34 33 34 33 33 33 33 33 33 33 32 32 32 31 31 30 30 29 28 28 27 26 25 25 24 25 26 27 28 25 22 24 22 18 16 15 15 17 17 17 17 18 17 14 12 11 11 11 12 13 15 15 15 15 15 13 11 9 15 24 30 32 32 32 32 32 33 32 31 31 32 33 32 31 31 31 31 30 30 30 30 29 29 28 26 25
36 36 36 37 37 36 36 36 36 36 35 35 35 35 34 34 33 33 32 31 30 29 28 27 27 26 25 25 26 27 28 27 25 25 24 21 19 17 16 16 17 18 19 19 19 18 15 13 12 12 12 13 14 15 16 16 16 16 14 11 8 12 22 30 32 32 32 31 30 29 29 29 30 31 29 27 28 27 27 26 26 26 26 27 27 26 25 23
39 39 39 39 39 39 39 39 39 38 38 37 37 36 36 35 35 34 33 32 31 30 29 28 27 27 26 25 25 26 27 28 27 25 25 24 22 21 19 17 17 18 19 19 20 20 19 16 14 13 12 13 13 14 15 16 16 17 16 14 11 9 13 22 28 31 31 30 29 27 26 28 28 29 27 24 24 23 22 22 22 23 23 23 23 23 22 21
41 41 42 42 42 42 41 41 41 40 39 39 38 37 37 36 35 35 34 33 32 31 31 30 29 28 28 27 26 26 27 29 28 25 26 26 24 23 22 20 18 17 19 20 20 21 21 20 18 16 14 13 13 14 15 15 16 17 17 16 14 11 11 16 21 27 30 29 28 25 24 25 26 27 26 23 21 20 19 18 18 19 19 19 19 19 19 18
43 43 43 43 43 43 43 43 42 42 41 40 40 39 38 38 37 37 37 36 35 35 34 34 33 32 31 30 29 29 29 30 30 28 28 29 27 25 24 23 21 19 19 20 21 21 22 22 21 18 17 15 14 13 14 14 15 16 17 16 14 12 11 13 15 19 25 27 27 24 22 23 23 24 22 20 20 18 17 15 15 15 15 15 15 15 15 15
44 44 44 45 45 45 44 44 44 44 43 43 42 42 41 41 41 40 40 40 39 39 39 39 38 37 36 35 34 33 33 34 33 31 30 31 31 28 27 26 24 22 20 20 21 21 22 22 22 21 19 18 16 14 13 13 14 14 15 15 14 12 11 12 12 12 16 20 20 19 18 19 19 20 18 18 18 16 14 12 12 11 11 12 12 12 12 13
46 46 46 47 47 47 47 47 47 46 46 45 45 44 44 44 43 43 42 42 42 42 42 42 42 41 40 40 39 38 39 37 36 35 33 34 34 33 31 29 27 26 24 22 21 21 22 22 23 23 22 20 18 16 14 13 13 12 13 14 14 13 11 11 11 10 9 13 14 13 14 15 16 17 16 16 16 14 12 10 9 9 9 9 10 10 11 11
48 48 49 49 49 49 49 49 48 48 48 47 47 47 46 46 45 45 44 44 44 43 43 44 44 43 42 43 42 42 43 42 40 40 37 36 37 37 35 32 31 29 27 26 23 22 22 23 24 23 23 22 20 19 16 14 14 12 12 13 14 14 13 11 11 9 7 10 13 13 13 13 14 16 15 14 14 12 10 9 8 7 7 8 9 10 10 10
50 50 51 51 51 51 51 51 50 50 50 50 50 49 49 49 48 48 47 47 47 46 46 46 46 45 44 45 45 44 45 44 42 43 42 40 40 40 39 36 35 33 31 30 27 24 22 23 25 24 23 23 21 21 19 15 15 14 12 12 13 13 13 12 11 9 6 7 10 11 13 12 13 15 13 11 10 9 8 7 7 7 7 8 9 10 10 10
52 52 52 53 53 53 53 53 53 53 53 53 53 53 53 52 52 52 51 51 50 50 50 50 49 48 47 48 48 46 46 46 45 45 44 43 43 43 42 40 38 37 35 33 31 29 25 24 26 25 25 24 22 23 22 18 16 14 12 12 12 13 13 13 12 11 8 6 6 7 11 11 11 12 11 8 7 7 6 6 7 7 8 9 9 9 9 10
54 54 55 55 55 56 56 56 56 56 56 55 55 55 54 54 54 53 53 52 52 51 51 51 52 51 49 50 51 49 49 48 48 47 46 45 45 45 45 44 42 41 39 37 35 33 29 26 27 27 26 24 24 25 24 22 19 15 12 12 12 12 13 13 13 12 10 7 5 4 7 9 9 8 8 7 6 6 5 6 7 7 8 8 9 9 9 10
57 57 57 58 58 58 58 58 57 57 56 55 55 54 53 52 52 51 50 49 49 48 47 48 49 49 48 49 49 50 50 49 50 50 48 48 47 47 47 46 45 44 43 41 38 36 33 30 29 29 28 25 26 26 25 25 22 16 13 13 12 11 11 12 13 13 11 8 6 4 4 6 7 6 7 6 6 6 6 6 7 7 8 8 8 9 9 10
59 59 59 59 59 58 57 57 55 55 53 52 51 49 47 47 47 45 44 43 42 40 39 40 42 42 42 43 44 46 47 47 48 49 50 50 49 49 48 47 47 46 46 44 42 40 37 35 33 31 30 29 27 27 29 29 22 17 15 15 13 11 10 10 12 13 11 9 7 5 3 4 5 6 7 7 6 7 7 7 7 7 8 8 9 10 10 11
59 59 58 58 57 55 54 53 51 50 48 46 45 44 41 41 41 39 37 37 34 32 31 33 34 34 33 35 36 37 40 41 42 45 47 49 49 50 50 49 48 47 47 46 46 44 41 39 37 34 33 32 30 30 33 31 22 18 18 17 15 12 11 9 10 11 11 10 7 6 4 3 5 7 8 8 7 8 9 8 8 8 9 9 10 10 11 11
58 57 57 55 54 52 50 48 47 45 43 41 39 39 37 36 35 33 33 32 29 28 27 29 30 29 27 28 29 30 31 33 35 37 40 43 46 48 50 50 50 49 48 48 48 47 44 42 39 38 38 36 33 34 36 31 24 21 20 19 17 14 12 10 9 10 10 10 8 6 5 5 6 7 9 9 8 8 9 9 8 8 9 10 10 10 11 12
56 55 53 52 50 48 47 45 44 42 40 38 36 36 35 34 32 30 30 29 28 27 27 29 30 29 26 27 28 26 25 27 29 30 32 35 39 42 46 48 50 51 51 50 49 47 46 44 42 43 44 40 35 36 37 33 27 24 23 22 20 16 14 11 9 10 10 9 7 6 6 6 6 6 7 8 8 7 8 8 8 8 9 9 9 10 11 12
52 51 50 49 47 45 44 43 42 41 39 37 35 34 34 34 31 28 29 30 30 28 28 30 31 31 28 27 28 24 24 27 26 26 27 28 31 34 38 42 46 49 51 51 50 48 47 46 47 48 48 44 39 38 38 35 31 27 25 24 22 19 17 13 11 11 10 10 8 5 4 5 6 5 5 6 6 6 6 7 8 8 8 8 9 11 12 14
49 48 47 46 45 43 42 42 42 40 39 38 37 36 35 35 31 28 29 32 33 29 30 32 30 34 32 27 27 25 28 29 25 26 27 25 26 27 29 34 38 43 47 50 51 50 49 49 52 51 50 47 43 40 39 37 34 30 28 26 25 24 20 16 14 14 12 10 9 6 4 4 5 5 5 6 6 5 6 7 8 9 10 10 10 12 14 15
48 47 47 46 46 44 42 42 42 40 39 39 40 39 37 35 32 31 31 33 36 31 31 32 29 34 35 28 24 27 32 30 25 28 29 26 26 25 25 27 30 35 40 45 49 50 51 52 54 52 50 49 47 44 41 39 36 33 31 28 29 28 23 19 17 16 14 11 11 10 7 6 6 5 4 7 7 6 7 8 10 11 11 12 12 12 13 14
48 47 47 48 48 47 44 43 43 42 41 41 42 41 39 36 34 33 32 31 35 33 31 31 29 34 36 29 27 30 34 31 28 30 29 27 28 27 26 25 25 30 34 38 43 47 50 54 54 52 51 49 49 47 44 41 39 37 35 33 33 32 27 23 20 19 15 12 12 12 10 8 7 6 4 6 8 7 7 9 11 13 12 12 12 12 12 12
50 49 49 49 50 50 48 46 45 45 44 44 45 43 41 39 36 34 33 30 34 38 32 28 29 35 36 32 33 33 33 34 33 30 28 29 30 28 27 27 27 28 28 31 35 41 47 52 54 53 52 52 50 48 46 45 43 40 38 38 38 36 32 27 24 20 16 15 16 13 11 10 8 8 6 7 9 8 7 10 12 13 13 12 12 12 12 12
53 52 51 51 52 53 52 49 48 47 47 47 47 46 43 41 38 36 35 31 33 41 37 28 30 36 37 36 36 34 32 37 36 29 30 32 30 27 28 30 31 29 26 25 28 35 42 47 51 53 53 53 52 50 49 48 46 43 43 43 42 39 36 31 28 23 19 20 19 14 13 12 11 11 8 8 9 9 9 11 14 15 15 13 12 12 13 13
56 55 54 54 54 56 57 54 51 50 50 50 50 49 46 44 41 40 39 33 33 42 41 33 32 34 37 37 36 35 36 39 35 32 35 34 29 29 29 31 33 30 26 24 27 33 36 40 45 50 53 53 53 52 52 50 47 47 50 48 44 42 40 36 32 25 22 24 20 15 14 14 13 14 10 8 10 11 12 13 16 17 17 15 13 12 13 14
59 58 57 58 58 59 61 59 55 54 54 53 53 52 49 47 46 44 43 37 35 41 43 39 37 36 38 38 37 37 40 40 37 37 38 34 31 32 31 32 32 31 28 27 30 32 32 35 39 44 49 52 54 55 55 52 47 50 55 50 47 46 44 41 36 29 26 25 21 18 17 15 15 15 12 10 11 13 14 14 16 18 18 17 14 13 13 14
61 61 61 61 61 61 63 63 60 59 57 56 56 54 52 51 49 48 46 40 39 43 44 44 43 41 41 40 39 40 41 41 40 39 37 34 34 34 34 34 31 31 30 30 33 33 31 33 34 37 43 48 53 56 57 54 50 54 57 51 49 49 46 45 40 33 29 24 21 21 19 18 17 15 13 13 14 15 15 15 16 17 19 19 17 16 15 15
65 64 64 64 65 64 65 64 63 62 60 59 59 57 56 54 53 51 47 43 44 46 47 49 49 46 44 43 43 42 41 42 42 39 36 35 36 36 37 36 32 31 31 31 33 35 35 33 31 33 38 43 49 53 56 55 54 58 57 52 51 50 49 48 43 39 32 23 21 22 22 21 19 16 15 16 17 16 15 16 17 18 19 20 20 18 17 17
67 67 67 67 67 67 67 65 64 65 63 61 61 60 59 58 56 53 47 47 50 50 50 53 53 50 48 47 46 45 43 44 43 40 38 38 38 38 38 38 36 33 31 31 33 36 35 33 32 34 35 38 42 47 53 55 56 58 57 54 54 52 52 50 46 42 33 24 24 26 25 23 20 19 20 21 20 19 18 18 19 19 20 20 20 19 18 18
69 69 69 69 68 69 70 68 66 67 66 65 63 62 62 60 58 53 49 52 55 54 54 57 56 53 52 51 49 48 47 46 46 44 42 40 39 39 39 40 39 35 32 33 34 35 34 34 36 35 33 35 39 42 48 54 56 57 57 57 55 54 53 51 47 44 37 31 32 31 29 26 23 24 25 24 23 23 22 21 20 20 21 20 20 20 19 20
72 71 72 73 71 71 73 72 70 68 69 69 67 65 64 62 58 53 53 57 59 59 60 61 59 57 55 53 52 52 51 50 50 48 45 43 40 39 39 39 39 38 35 36 35 34 34 35 36 35 35 37 38 39 43 49 54 57 58 58 57 56 54 50 49 48 43 39 39 38 33 28 27 29 29 29 28 27 25 23 22 23 23 23 23 22 22 22
75 75 75 77 76 74 74 75 73 71 72 72 71 69 67 63 59 58 59 62 63 64 64 63 62 61 58 55 55 55 55 55 55 53 49 46 42 40 40 40 40 40 39 39 36 35 34 33 35 36 38 39 37 37 40 44 49 53 56 58 58 57 53 51 53 53 50 47 47 44 35 29 30 33 34 33 30 28 26 25 25 26 25 25 25 25 25 24
79 80 80 81 81 78 76 77 76 76 75 75 74 72 69 65 64 64 65 67 68 68 68 66 65 64 62 60 59 58 58 58 59 58 54 49 45 43 43 42 43 43 42 40 38 38 36 34 37 38 38 39 37 37 39 41 44 48 53 56 55 54 55 56 58 58 57 55 52 46 37 33 34 37 37 35 31 29 28 27 28 29 28 28 27 27 28 27
82 84 85 87 85 82 80 79 78 78 78 78 77 74 70 69 70 70 70 71 71 71 71 71 70 68 67 65 64 62 61 61 63 62 58 53 49 47 45 45 46 46 44 43 42 42 38 38 41 39 36 38 39 39 40 39 41 44 47 50 52 57 62 62 61 61 62 58 52 48 42 38 37 38 38 36 33 32 30 30 31 31 30 30 29 28 29 29
85 87 90 91 89 86 85 83 81 81 81 81 79 76 74 75 75 75 75 76 75 75 75 77 76 73 71 70 68 67 66 66 67 65 63 59 54 50 48 47 49 49 48 47 46 44 42 42 43 40 36 37 40 42 41 39 40 41 40 45 52 59 62 61 61 62 61 56 51 50 47 43 40 38 39 38 36 35 33 32 33 33 33 32 32 31 30 30
87 89 92 94 93 91 90 88 86 85 84 83 81 79 79 80 81 81 82 82 81 80 79 80 81 78 76 74 73 72 71 70 69 68 67 64 58 54 53 51 50 52 53 51 48 47 45 44 45 44 40 39 40 40 40 40 40 39 38 42 48 52 54 57 59 60 60 58 55 52 51 48 43 40 41 41 40 38 36 35 36 36 36 35 35 34 33 32
90 91 95 97 96 95 94 92 92 91 89 86 84 85 86 86 86 87 87 87 86 85 83 83 84 84 81 79 78 78 76 73 72 71 68 67 63 59 58 56 54 54 56 56 51 49 49 46 46 47 45 44 40 36 37 39 41 42 40 40 43 45 49 53 57 59 61 62 60 56 54 51 47 45 45 44 44 43 40 39 39 39 38 37 37 37 35 34
93 95 99 100 99 98 97 96 96 96 94 91 90 91 91 91 91 91 91 91 90 89 87 86 86 86 85 84 84 83 81 78 76 74 70 68 66 64 62 61 58 58 59 59 55 53 51 48 47 49 49 46 40 37 37 39 41 44 44 42 43 44 46 49 53 57 61 64 63 60 56 52 50 51 50 47 48 48 46 43 42 41 40 39 39 39 38 37
97 98 102 103 101 100 101 101 101 100 98 97 96 96 96 95 95 95 95 95 94 93 92 90 89 87 88 89 88 88 88 84 81 78 74 70 68 67 67 66 64 63 62 61 58 56 54 51 50 52 51 47 44 44 43 40 40 44 46 46 46 45 46 46 47 51 57 62 64 64 59 54 54 56 54 52 52 52 51 49 46 44 43 42 42 42 41 40
100 101 105 106 104 103 105 106 105 105 103 102 101 101 100 100 99 98 99 99 98 97 96 94 92 91 92 92 92 93 92 89 85 82 77 74 71 70 71 72 70 67 65 62 61 61 60 56 53 52 51 50 49 49 46 42 40 42 45 48 49 46 44 42 42 46 53 59 63 66 63 58 57 58 57 56 56 55 54 52 50 47 45 44 44 45 44 43
103 105 107 107 106 106 108 109 110 110 108 106 106 106 105 104 103 102 102 103 102 101 100 98 97 96 96 96 97 98 97 93 89 85 82 79 77 74 75 76 74 71 68 64 63 65 65 60 54 53 54 53 52 50 47 45 43 40 40 45 49 48 45 42 40 44 48 52 58 65 64 60 59 60 60 60 60 59 57 56 54 52 49 47 48 48 47 46
107 109 111 110 108 108 110 113 114 114 113 111 111 110 109 108 107 107 107 107 106 105 104 103 102 102 101 101 101 102 101 98 93 90 87 84 81 80 80 79 77 74 71 67 67 69 68 63 58 56 55 53 51 50 47 46 46 44 42 44 47 48 48 45 42 44 46 46 52 59 61 61 63 63 63 64 64 62 61 59 57 56 53 51 51 50 49 49
108 111 113 113 110 110 113 116 117 116 116 115 115 114 113 112 112 112 112 111 110 109 108 107 107 108 107 105 105 105 106 104 98 95 92 89 86 85 84 82 79 77 75 73 73 72 70 67 63 59 55 53 51 49 49 50 50 49 48 47 48 49 50 47 46 46 44 43 47 52 56 61 66 67 66 66 66 66 65 62 59 58 57 55 55 53 52 52
111 112 115 115 113 112 115 118 119 119 119 119 117 117 117 117 116 116 116 115 113 113 113 112 111 112 111 109 107 108 110 108 103 100 97 94 91 90 88 85 82 81 80 78 78 76 72 70 66 60 57 55 54 54 55 56 55 52 52 50 50 52 51 49 49 46 42 43 46 46 49 57 63 67 68 69 69 69 67 65 63 61 60 59 58 56 55 55
115 116 118 119 118 117 118 120 122 122 122 122 121 120 120 120 120 120 119 119 118 119 118 117 116 116 115 113 111 111 112 111 107 105 103 100 96 94 91 89 87 85 83 83 82 80 76 72 67 64 62 59 59 60 60 58 56 54 54 53 53 55 54 48 46 44 44 46 45 42 45 51 56 62 68 71 73 72 69 67 66 64 63 62 62 61 60 59
120 121 121 122 123 123 122 123 125 126 127 127 126 125 125 125 124 124 124 123 123 123 123 122 122 122 120 117 114 114 113 112 110 108 107 104 101 99 97 94 92 90 87 87 86 84 80 74 69 69 68 65 64 65 64 61 58 55 55 55 54 56 56 51 44 44 47 47 42 41 44 46 50 57 63 68 73 74 72 70 68 67 66 66 66 64 63 61
122 123 123 123 125 126 126 126 126 128 130 130 130 129 129 129 129 128 128 128 127 127 128 128 128 127 124 120 118 117 115 114 112 111 109 108 106 104 102 99 97 95 93 91 90 88 83 77 74 73 72 71 70 68 66 65 62 58 57 56 56 56 57 55 48 44 46 46 43 43 45 43 45 51 56 62 69 72 73 72 70 69 69 69 68 66 65 63
118 118 118 119 120 121 122 122 123 125 128 130 131 131 131 131 132 132 132 131 131 132 133 134 133 131 127 124 122 121 119 117 116 114 112 111 110 109 107 105 102 100 98 96 95 93 87 81 79 78 76 75 73 71 70 68 66 63 60 57 56 56 57 57 53 45 43 45 45 45 44 42 43 46 50 55 61 65 69 72 72 70 70 70 70 69 68 66
105 105 104 105 107 107 108 109 110 112 116 120 123 124 126 128 130 132 133 133 134 135 137 138 137 134 131 128 127 126 124 122 119 117 116 115 114 113 111 109 107 104 102 101 100 97 91 86 84 83 81 77 74 74 72 70 70 69 64 58 55 54 55 57 57 51 44 43 45 45 44 42 42 44 45 49 54 57 61 67 72 73 72 72 71 71 69 67
89 88 88 89 91 91 91 92 93 96 99 103 106 109 112 115 119 123 127 130 133 135 138 140 139 137 134 132 131 130 129 127 123 121 120 119 117 116 114 112 111 109 107 105 104 101 97 93 89 87 85 79 77 76 74 75 77 71 62 58 56 54 55 58 60 57 50 44 43 43 42 42 44 44 43 44 49 53 56 61 67 72 75 75 74 73 71 69
Wind_Direction
269 268 269 269 270 271 272 273 275 276 278 280 282 284 286 288 290 291 292 293 295 296 298 299 301 303 305 306 307 308 311 318 322 326 329 328 332 335 339 344 346 351 356 2 6 8 12 11 9 5 6 12 16 11 344 285 255 245 241 238 237 238 239 241 243 244 244 245 245 246 248 251 254 256 256 256 257 258 259 261 264 265 264 264 265 265 267 270
268 268 269 269 270 271 272 272 274 275 277 278 280 282 283 285 286 288 289 290 290 290 291 292 293 295 297 298 299 300 302 309 312 312 316 319 323 325 327 332 334 337 341 346 353 357 0 3 4 1 357 0 7 11 7 345 291 256 246 241 237 237 238 240 242 244 245 246 246 246 249 251 253 256 258 258 259 259 260 262 264 264 263 263 265 265 266 268
269 270 270 271 271 272 273 274 275 276 277 278 279 280 281 282 283 284 285 286 286 286 286 286 287 288 289 291 292 293 295 300 304 301 303 309 313 315 316 319 322 325 328 330 338 344 349 352 356 357 354 353 356 2 7 7 345 285 254 246 242 240 240 242 244 245 247 248 249 249 251 253 254 258 262 263 262 263 263 263 264 264 260 261 263 264 265 266
270 271 271 272 273 274 275 276 277 277 278 279 279 280 280 281 281 281 282 282 282 282 282 282 281 282 282 284 285 287 289 293 296 292 293 299 301 303 306 307 311 316 318 319 323 329 337 341 345 350 352 349 350 354 359 6 5 341 284 257 248 246 246 246 247 248 249 251 253 254 256 258 259 262 265 268 268 267 267 265 264 261 257 257 260 261 263 264
271 272 272 273 274 274 275 276 277 278 278 279 279 280 280 280 281 281 280 280 280 279 279 279 278 277 277 278 280 282 284 287 287 284 288 294 293 292 294 297 303 308 310 312 314 317 323 328 334 339 345 346 347 349 352 358 3 360 343 297 261 251 248 248 249 250 251 252 254 256 259 262 264 265 267 269 268 267 267 266 262 257 253 256 258 258 260 263
272 273 273 274 274 275 275 276 276 277 278 278 279 279 280 280 280 280 280 280 279 278 277 276 276 274 273 272 274 278 281 282 280 281 286 288 285 283 284 289 295 300 301 304 306 309 312 317 321 327 335 339 341 345 347 352 357 360 357 347 320 273 255 251 250 251 251 252 254 257 261 264 266 268 268 267 263 262 263 263 259 253 251 254 255 254 257 261
273 274 274 274 275 275 275 276 276 276 277 277 278 278 279 279 279 279 279 279 278 278 277 275 274 273 272 271 271 273 275 276 278 280 282 281 280 280 281 283 285 289 292 295 298 301 304 308 311 315 322 329 333 338 342 347 351 355 358 357 353 326 282 262 255 252 252 253 255 258 263 266 267 267 268 264 256 254 257 257 254 250 249 251 252 252 255 260
274 274 274 275 275 275 275 276 276 276 276 277 277 277 278 278 278 278 278 278 277 276 276 274 273 272 271 271 270 269 270 273 275 277 277 277 278 278 278 277 275 278 283 287 290 293 297 301 303 306 311 317 323 329 335 342 346 349 354 359 357 343 313 284 268 259 255 255 257 259 264 266 263 263 263 260 251 246 247 250 248 246 245 247 250 252 255 259
274 274 274 275 275 275 275 276 276 276 276 277 277 277 277 277 277 277 276 276 276 275 275 274 273 272 271 270 269 268 268 270 272 272 273 275 275 274 274 273 273 273 275 280 284 286 291 295 297 300 303 308 312 319 326 332 339 343 348 355 355 346 324 306 295 275 262 259 259 259 261 260 257 256 258 256 248 240 239 243 244 243 243 246 250 253 256 260
273 274 274 275 275 276 276 276 276 276 277 277 277 277 276 276 276 276 276 275 275 274 274 273 272 272 271 270 269 268 267 267 269 270 270 272 272 272 271 271 272 271 269 272 276 281 286 289 292 295 297 301 304 309 316 320 327 335 339 345 349 347 333 317 314 297 270 260 260 259 256 254 253 255 256 252 245 237 233 238 241 242 243 245 249 252 254 255
273 273 274 274 275 275 275 275 275 276 276 276 276 275 275 275 274 274 274 273 273 273 272 272 272 271 271 269 268 267 266 265 267 267 266 268 270 270 269 269 269 269 268 267 268 274 279 283 286 289 293 296 299 301 304 308 314 322 330 334 339 344 343 328 318 310 280 259 258 261 258 254 254 258 257 249 241 233 227 228 234 239 244 246 246 244 243 241
272 272 272 273 273 273 273 273 274 274 274 274 273 273 272 272 271 271 271 270 270 270 269 269 269 270 270 268 267 266 265 264 264 265 264 264 266 267 267 267 267 267 267 267 266 267 272 277 280 284 288 290 293 296 296 300 304 310 321 326 331 335 341 340 326 316 294 263 258 260 258 255 254 257 255 243 235 228 222 221 225 233 241 245 243 237 232 229
270 271 271 271 271 272 272 272 272 272 272 272 272 272 272 271 271 270 269 269 268 268 267 267 266 267 267 266 266 265 265 264 263 263 263 262 262 264 265 265 265 265 265 265 265 263 265 270 274 279 282 284 289 290 290 294 297 300 309 316 322 327 335 343 337 326 313 282 266 258 254 250 248 252 249 237 229 225 221 222 224 229 235 239 241 237 232 230
270 271 271 271 271 272 272 272 272 272 273 273 273 273 273 272 272 271 270 269 268 268 267 266 265 265 264 264 264 263 263 264 263 262 261 260 260 261 262 262 263 263 263 263 263 262 260 263 269 273 275 279 285 284 285 288 289 293 300 306 313 320 328 338 342 337 327 309 291 267 252 244 240 247 247 235 229 227 225 231 233 233 233 235 236 237 236 236
271 271 272 272 272 273 273 273 274 274 274 274 274 274 274 273 272 271 271 270 269 268 267 266 265 264 263 262 262 261 261 261 261 261 260 260 259 259 260 260 260 261 261 261 261 262 260 259 263 267 270 275 277 277 282 283 282 286 293 298 304 313 323 331 337 340 337 330 320 285 254 240 231 241 250 241 231 228 223 232 238 239 234 232 234 238 241 243
272 272 273 273 273 274 274 274 274 274 274 274 274 273 273 272 271 270 270 268 268 267 266 265 264 263 261 261 261 260 259 259 259 259 258 258 257 258 258 258 257 258 259 259 259 260 260 258 257 261 266 269 270 275 278 276 276 282 288 292 296 304 315 322 328 333 338 339 333 311 259 235 223 230 251 249 234 230 225 228 239 246 242 235 236 242 246 248
272 273 273 273 273 274 274 274 274 273 273 273 272 272 271 270 269 268 267 266 265 265 264 264 263 262 260 259 259 259 258 257 257 257 256 255 255 255 255 256 256 256 256 258 258 257 257 258 256 256 260 263 266 270 270 269 273 281 284 285 288 295 301 310 319 324 331 335 333 324 287 242 224 227 252 256 244 239 235 234 241 250 253 245 241 242 245 244
272 272 272 272 272 273 272 272 272 271 271 270 270 269 268 267 266 265 264 264 262 261 262 264 262 261 259 258 257 257 258 256 256 256 255 254 253 252 252 253 254 254 254 255 255 255 255 256 257 256 256 257 259 261 263 266 272 277 278 279 281 284 287 294 305 314 323 327 327 323 308 269 238 233 252 263 255 246 240 240 247 253 257 252 244 240 238 230
271 271 271 271 271 270 270 269 269 268 268 267 268 267 266 265 265 264 263 263 263 261 263 269 267 262 260 260 257 256 257 255 255 256 255 255 253 251 251 250 251 251 252 252 252 253 253 254 256 256 254 252 252 257 261 266 270 271 273 273 273 274 275 279 289 299 309 317 322 317 299 277 250 234 242 257 257 245 236 237 247 255 256 250 239 229 221 209
270 270 270 269 268 268 267 266 265 265 265 265 265 267 266 265 264 265 267 266 266 266 269 274 275 269 264 267 265 258 259 258 255 256 255 254 254 253 251 250 249 249 249 249 250 251 252 253 253 252 252 250 248 253 258 262 264 266 267 269 269 269 269 269 275 284 292 299 307 308 292 279 265 244 232 243 249 240 231 229 240 249 244 231 217 206 198 186
269 268 267 266 265 264 264 264 264 264 264 264 263 264 265 265 263 264 271 273 269 268 272 274 277 275 269 271 272 266 269 267 259 259 258 254 255 254 254 251 249 248 247 247 248 249 249 249 248 248 250 250 247 248 253 258 260 261 263 266 268 267 265 262 264 269 273 279 284 286 288 277 269 257 225 221 232 227 218 219 227 226 210 193 186 178 171 161
265 265 265 264 263 261 261 263 263 263 263 263 262 261 262 265 265 265 270 274 270 266 270 271 275 278 271 268 275 279 279 273 266 269 267 260 257 255 255 254 251 249 247 246 245 245 245 245 246 248 249 251 249 248 250 253 257 259 261 263 264 263 260 257 254 255 258 266 271 263 250 252 248 237 211 203 206 206 205 208 208 196 178 166 164 160 154 150
262 262 262 262 261 260 259 260 261 261 262 263 263 261 261 263 265 265 266 271 271 265 267 270 271 274 272 268 275 281 277 272 273 277 274 270 267 260 257 255 254 253 248 246 244 243 243 243 245 247 249 251 251 250 249 251 254 257 259 259 259 259 256 252 248 246 245 251 263 259 241 235 242 239 210 198 198 198 198 195 190 182 172 164 160 158 155 152
260 260 261 261 261 260 258 258 259 260 261 263 263 263 262 261 262 263 263 267 273 267 263 268 269 270 271 272 272 272 273 275 276 277 277 278 276 269 263 258 255 254 251 248 246 243 242 242 244 246 247 248 250 250 249 249 251 253 256 256 256 256 254 250 247 243 239 238 247 254 247 237 247 260 240 206 201 198 192 186 185 182 177 173 169 168 167 168
259 258 260 261 262 261 259 257 259 260 261 263 264 263 262 261 259 260 261 262 272 271 261 262 269 269 270 270 267 267 273 276 272 273 277 276 274 272 272 269 261 257 253 251 250 247 244 242 242 243 244 245 246 248 247 246 247 249 252 253 253 253 252 249 245 241 238 239 238 241 246 242 241 253 249 222 206 199 196 190 190 189 185 181 179 178 177 180
259 258 258 260 261 263 261 258 258 259 260 262 263 263 262 261 258 257 258 256 266 271 266 260 262 266 269 267 267 269 272 271 270 273 272 269 271 275 277 274 269 263 256 254 254 251 247 243 242 242 242 243 244 245 246 245 244 245 247 247 249 250 250 248 243 237 234 239 236 231 238 240 237 238 239 234 219 207 203 198 196 197 195 189 185 186 184 184
259 259 258 259 260 263 263 260 259 259 260 260 262 263 262 262 260 257 257 254 260 270 272 265 258 261 267 268 268 269 266 266 268 269 267 267 272 273 272 272 273 270 263 257 257 254 251 248 245 241 240 240 241 242 242 243 242 243 243 243 246 248 248 247 243 234 230 234 233 226 231 236 238 236 231 234 230 218 210 204 203 203 202 199 194 197 196 190
259 259 259 259 259 261 263 262 260 260 260 260 260 262 262 261 261 260 258 254 258 268 272 269 262 259 262 264 265 264 264 266 266 264 266 269 271 270 269 269 271 274 271 266 262 257 252 252 249 245 242 239 240 240 241 241 240 241 242 241 243 245 246 247 244 237 231 230 229 226 226 230 236 237 230 230 231 227 219 210 209 209 208 208 205 207 208 201
259 259 259 259 259 260 262 263 262 260 260 260 260 261 261 261 260 260 260 258 260 265 268 269 266 261 259 261 261 261 263 266 266 265 268 269 268 268 268 268 270 273 273 270 268 264 256 253 252 251 247 241 239 239 241 240 238 240 241 240 241 243 245 246 245 241 234 229 229 228 225 225 231 234 231 231 231 227 223 217 215 214 213 213 212 214 214 209
259 259 259 259 260 260 260 262 263 262 259 259 260 260 260 261 260 260 260 262 263 263 264 266 265 262 260 260 260 261 262 264 266 267 269 267 265 265 266 268 269 269 271 272 271 267 262 256 253 254 252 246 241 239 240 240 238 240 241 240 239 241 243 245 246 244 236 227 230 232 228 225 225 229 230 230 229 225 223 222 219 217 216 215 214 215 217 215
259 259 259 259 259 260 259 259 261 262 261 259 259 260 260 260 260 261 262 265 264 262 261 262 263 263 262 261 260 261 262 263 265 265 265 264 263 263 265 267 268 267 269 270 266 266 267 264 257 253 253 252 248 242 240 239 239 241 242 240 239 238 240 242 244 244 239 232 235 234 230 226 222 224 228 228 227 223 220 223 223 222 220 219 218 217 218 220
259 259 259 259 259 260 260 259 258 260 261 261 259 259 259 259 260 263 263 264 264 262 261 261 262 262 262 263 264 264 263 264 264 263 262 262 262 263 263 264 267 268 267 266 264 266 268 266 262 257 255 255 251 246 242 239 239 240 241 240 238 237 238 238 242 245 243 240 240 235 228 224 221 224 225 226 227 223 217 218 221 224 224 223 223 221 220 221
259 259 259 260 259 259 260 260 259 259 260 261 260 258 258 258 260 261 261 261 262 262 261 262 262 262 262 264 265 266 266 265 264 263 262 261 261 262 263 263 265 266 264 263 265 267 266 265 264 260 256 254 250 248 246 243 240 240 240 240 238 237 236 236 240 243 242 240 239 235 226 221 224 227 225 222 224 224 219 215 217 222 225 227 227 226 224 222
260 260 260 260 260 259 259 261 260 260 259 260 260 259 258 258 258 258 257 258 259 259 259 260 262 263 263 263 264 265 266 266 265 264 262 262 262 263 264 263 263 263 261 262 265 266 265 264 262 258 256 255 252 250 249 247 245 243 242 241 240 240 237 236 237 239 239 237 236 234 224 217 224 230 228 222 219 223 223 217 218 221 224 226 227 228 227 224
261 261 261 261 261 259 259 260 260 260 259 259 259 259 259 260 259 256 255 255 256 257 259 260 260 261 261 261 261 261 262 264 264 264 262 261 262 262 262 262 262 261 262 263 263 262 264 263 261 258 258 258 256 252 249 248 248 248 245 242 241 240 237 233 233 235 236 236 236 235 224 216 222 229 232 227 219 220 223 222 222 222 224 226 227 230 230 227
262 262 262 261 261 261 260 259 259 259 259 258 258 258 259 260 260 258 257 256 256 257 259 259 258 257 258 258 258 258 258 259 261 262 262 261 260 260 261 262 263 262 262 262 260 260 261 261 260 261 261 260 257 254 251 248 247 249 250 247 242 239 236 232 230 232 233 233 236 237 229 219 221 228 233 233 226 221 221 224 227 226 225 226 227 231 233 231
262 262 263 262 262 261 261 260 259 258 258 257 257 257 258 259 259 260 260 259 259 258 259 259 258 257 257 257 256 256 255 256 258 261 262 261 260 260 260 259 261 262 261 260 259 259 259 258 260 264 264 259 255 255 254 251 248 249 252 252 246 241 241 238 234 234 235 234 235 239 236 226 223 228 233 236 233 226 221 224 230 231 230 229 228 228 231 232
261 262 262 263 262 262 261 261 260 259 258 257 257 257 257 258 258 259 259 259 259 258 258 260 261 259 257 256 256 255 254 254 256 258 260 260 260 260 260 258 259 261 261 260 259 259 259 258 258 262 262 259 257 257 258 256 253 249 249 252 251 247 244 242 238 236 236 235 234 237 238 233 228 229 233 236 237 233 226 222 227 232 232 232 232 229 227 229
261 261 261 262 261 261 261 261 261 260 259 258 258 258 257 257 258 258 258 258 258 258 257 258 260 261 260 259 257 256 255 254 254 255 257 260 261 260 259 258 258 258 259 260 259 258 258 258 257 258 260 261 261 263 261 256 254 252 248 250 253 251 247 243 239 235 234 233 233 232 235 236 233 231 232 234 236 236 231 225 225 229 231 233 236 235 231 229
260 260 260 260 260 261 261 260 260 260 260 259 258 258 258 257 257 258 258 258 258 258 257 257 257 259 260 260 258 257 256 254 254 254 254 257 259 260 259 259 258 257 258 259 260 259 259 260 259 257 257 262 265 266 260 253 250 252 251 249 250 251 250 246 242 238 235 233 233 232 232 233 234 234 232 231 233 235 234 230 226 226 229 232 235 237 237 233
261 260 260 260 260 260 260 260 259 259 259 259 258 258 258 257 258 258 258 258 258 258 257 257 256 257 258 258 258 257 257 255 254 253 253 253 255 257 258 258 256 255 255 257 260 260 259 258 256 254 257 262 263 261 259 255 251 251 252 252 251 251 252 251 248 244 239 235 234 233 230 228 231 234 233 231 231 233 234 234 230 226 227 230 232 235 237 236
261 261 260 260 259 259 259 259 259 258 258 257 257 257 257 257 257 258 258 258 258 258 257 257 256 256 257 257 257 256 256 255 255 254 254 253 253 253 255 256 256 254 254 256 258 259 257 256 255 257 259 260 258 259 262 263 258 254 254 255 255 254 254 254 252 249 243 237 235 234 231 228 230 234 234 233 232 233 235 236 234 230 227 229 232 234 235 236
261 260 260 259 259 258 258 258 258 257 257 256 256 256 256 256 257 257 257 258 258 258 258 258 257 256 256 256 256 256 256 255 255 254 254 253 252 252 253 254 255 255 255 255 257 258 258 258 258 258 258 258 259 262 266 268 267 263 258 256 256 255 253 252 252 251 247 241 237 235 232 230 231 234 234 234 234 234 235 236 237 234 230 229 232 234 235 236
261 261 260 259 258 258 258 258 257 257 256 256 256 256 256 256 256 256 256 256 257 257 257 258 258 257 256 256 256 257 257 256 255 254 254 253 253 252 252 252 254 256 257 257 256 257 258 259 259 257 258 260 263 267 270 270 267 264 259 256 255 253 249 248 250 250 249 245 240 237 233 231 231 232 232 233 234 234 234 235 236 237 235 232 233 234 235 237
262 261 261 260 258 258 258 257 257 257 256 256 255 255 255 255 255 255 255 255 256 256 256 256 256 256 256 256 257 257 258 258 257 256 255 254 253 253 253 253 254 255 256 256 255 255 257 258 259 260 261 264 266 267 265 260 256 255 257 257 257 254 249 245 247 249 250 251 246 239 235 233 231 231 232 232 233 235 235 234 235 237 237 237 236 235 236 237
264 263 263 262 261 259 259 258 258 257 257 256 256 255 255 255 254 254 254 254 254 254 254 254 254 254 254 255 255 256 257 258 258 258 257 256 255 254 254 255 255 255 256 257 257 257 257 258 261 263 263 263 263 261 256 253 253 255 255 256 258 258 254 247 246 250 252 252 250 244 238 236 234 232 233 234 233 234 234 234 234 234 236 238 238 237 237 237
266 265 264 264 263 261 260 260 260 259 258 258 257 256 255 255 254 254 254 253 252 252 252 252 252 252 252 252 252 253 254 256 257 257 258 257 257 256 256 255 255 254 255 255 256 257 257 258 260 263 263 261 259 257 256 256 257 256 254 253 256 258 259 253 247 247 249 249 251 249 242 239 237 235 234 235 235 234 234 234 234 234 234 236 238 238 237 238
267 266 265 265 264 263 261 260 260 259 259 258 257 256 256 255 254 254 253 253 252 252 252 251 250 250 250 250 250 250 252 253 255 256 257 257 257 257 256 255 255 254 253 254 255 256 256 257 258 258 259 258 256 255 256 257 257 256 254 253 253 255 259 259 250 242 244 247 249 251 247 242 240 238 236 237 238 236 234 234 235 236 236 236 237 238 239 240
269 268 267 266 265 264 262 261 260 259 259 258 257 256 255 255 254 253 253 253 252 252 252 251 250 250 249 249 249 249 249 250 251 252 254 255 256 256 255 255 255 254 254 253 253 254 254 255 255 255 255 256 255 254 254 256 256 255 254 254 253 252 255 259 257 246 242 244 246 249 250 247 243 242 239 238 240 239 237 235 235 237 238 238 239 239 241 242
271 270 269 267 266 265 263 262 260 259 259 258 257 256 255 254 253 253 252 251 251 251 251 250 250 250 249 249 248 248 248 248 248 249 250 251 252 253 254 254 254 254 254 254 253 253 253 252 253 252 252 253 254 254 253 255 256 255 253 254 254 252 252 257 260 255 245 241 242 245 249 249 247 245 242 241 242 242 240 237 235 236 238 240 240 240 241 242
272 271 269 268 267 265 263 262 261 259 258 257 256 255 254 253 252 251 251 250 250 249 249 249 249 248 248 247 247 247 247 246 246 246 247 248 249 250 252 252 252 253 253 253 254 254 253 252 250 250 250 250 252 253 253 254 254 254 254 256 256 256 253 254 257 259 251 241 239 242 246 249 249 247 245 244 245 245 244 241 238 236 236 238 239 241 241 242
273 271 270 268 267 264 262 261 260 258 257 255 255 254 252 251 250 249 248 248 247 247 247 248 247 247 246 246 245 245 245 245 245 245 245 246 247 248 249 250 251 251 252 252 253 254 254 253 251 249 249 248 248 249 250 249 250 253 257 258 258 257 254 250 251 255 255 248 241 240 242 245 247 249 249 248 248 248 247 244 241 238 236 236 237 239 240 240
Height
11000 11000 11001 11001 11001 11002 11002 11002 11003 11003 11003 11003 11003 11004 11004 11004 11004 11004 11004 11005 11005 11005 11004 11003 11002 11001 11000 10999 10998 10999 11000 11001 11001 11001 11000 11000 10999 10998 10997 10997 10996 10996 10995 10995 10994 10994 10993 10992 10991 10989 10988 10987 10986 10985 10984 10983 10982 10982 10982 10983 10983 10983 10984 10985 10985 10986 10987 10988 10990 10991 10992 10993 10993 10991 10991 10991 10990 10991 10994 10994 10994 10994 10995 10995 10996 10996 10997 10997
10998 10998 10998 10998 10999 10999 10999 11000 11000 11001 11001 11001 11002 11002 11002 11002 11002 11002 11002 11003 11003 11003 11003 11002 11001 11000 10999 10997 10996 10996 10997 10999 10999 10999 11000 10999 10998 10998 10996 10996 10995 10995 10994 10994 10994 10993 10993 10992 10991 10989 10988 10987 10986 10985 10983 10982 10981 10980 10980 10980 10980 10981 10981 10982 10982 10984 10985 10985 10987 10989 10990 10990 10991 10989 10988 10988 10988 10989 10991 10991 10991 10992 10993 10993 10993 10994 10994 10994
10995 10995 10996 10996 10996 10997 10997 10997 10998 10998 10998 10999 10999 10999 11000 11000 11000 11000 11000 11000 11000 11001 11001 11000 11000 10999 10998 10996 10995 10994 10994 10996 10997 10997 10998 10998 10998 10997 10996 10995 10994 10994 10993 10992 10992 10992 10992 10991 10990 10989 10987 10986 10985 10984 10983 10982 10980 10979 10978 10978 10979 10979 10979 10980 10980 10981 10983 10983 10984 10986 10987 10988 10989 10987 10985 10985 10986 10987 10987 10987 10989 10991 10990 10990 10991 10991 10992 10992
10992 10993 10993 10993 10993 10994 10994 10994 10995 10995 10995 10996 10996 10996 10997 10997 10997 10998 10998 10998 10998 10998 10998 10998 10998 10997 10996 10995 10993 10992 10991 10994 10995 10994 10995 10997 10997 10996 10995 10994 10993 10993 10992 10991 10991 10991 10991 10990 10989 10989 10987 10986 10984 10983 10982 10981 10980 10978 10977 10977 10977 10978 10978 10978 10979 10980 10981 10981 10982 10984 10985 10985 10986 10985 10983 10983 10984 10984 10983 10984 10986 10987 10987 10988 10989 10989 10990 10990
10989 10989 10989 10990 10990 10990 10991 10991 10991 10992 10992 10992 10993 10993 10993 10994 10994 10994 10995 10995 10995 10995 10995 10995 10995 10995 10994 10993 10992 10990 10989 10991 10993 10991 10991 10994 10995 10995 10994 10993 10992 10992 10991 10990 10989 10989 10989 10989 10989 10988 10987 10985 10984 10983 10982 10980 10979 10978 10976 10975 10975 10976 10977 10976 10977 10978 10979 10979 10980 10981 10982 10983 10982 10982 10982 10982 10982 10981 10980 10981 10982 10984 10985 10985 10986 10987 10987 10988
10986 10986 10986 10986 10986 10987 10987 10987 10988 10988 10988 10989 10989 10989 10989 10990 10990 10990 10991 10991 10992 10992 10992 10992 10992 10992 10992 10992 10990 10989 10988 10988 10989 10988 10989 10991 10992 10992 10992 10992 10991 10991 10990 10989 10988 10987 10987 10987 10987 10987 10986 10985 10984 10982 10981 10980 10979 10977 10976 10974 10973 10973 10974 10974 10975 10975 10976 10977 10978 10979 10980 10980 10979 10979 10980 10981 10979 10978 10977 10978 10979 10981 10982 10983 10984 10984 10985 10986
10981 10982 10982 10982 10982 10983 10983 10983 10984 10984 10985 10985 10985 10985 10986 10986 10986 10986 10987 10987 10988 10988 10988 10988 10988 10988 10988 10989 10989 10988 10986 10985 10986 10987 10987 10987 10988 10989 10990 10990 10990 10989 10989 10988 10987 10986 10985 10985 10985 10985 10985 10984 10983 10982 10981 10980 10978 10977 10976 10974 10972 10971 10972 10972 10973 10973 10974 10975 10976 10978 10978 10977 10977 10975 10977 10979 10978 10977 10975 10975 10977 10978 10980 10980 10981 10982 10983 10984
10977 10977 10977 10978 10978 10978 10979 10979 10979 10980 10981 10981 10981 10982 10982 10982 10982 10983 10983 10983 10984 10984 10984 10985 10985 10985 10985 10986 10986 10985 10984 10983 10983 10985 10984 10983 10985 10986 10987 10987 10988 10988 10987 10987 10986 10985 10984 10984 10984 10984 10983 10983 10982 10981 10980 10979 10978 10977 10975 10974 10973 10972 10971 10971 10971 10971 10972 10973 10974 10976 10976 10975 10974 10973 10975 10976 10976 10976 10974 10974 10975 10976 10977 10978 10979 10980 10981 10982
10973 10972 10972 10973 10973 10973 10974 10974 10975 10975 10976 10977 10977 10978 10978 10978 10979 10979 10979 10979 10980 10980 10980 10980 10981 10981 10982 10982 10982 10982 10982 10980 10981 10982 10982 10980 10981 10983 10984 10984 10985 10986 10986 10985 10984 10984 10983 10982 10982 10982 10982 10982 10981 10981 10980 10979 10978 10977 10976 10975 10974 10973 10971 10970 10969 10970 10970 10971 10971 10973 10974 10972 10971 10971 10973 10973 10973 10974 10973 10972 10973 10974 10975 10976 10977 10978 10978 10979
10968 10968 10968 10968 10968 10968 10969 10969 10970 10970 10971 10972 10973 10973 10974 10974 10974 10975 10975 10975 10976 10976 10976 10976 10976 10977 10978 10978 10979 10979 10978 10977 10977 10979 10979 10977 10977 10979 10980 10981 10981 10983 10983 10983 10983 10982 10982 10981 10980 10980 10980 10980 10980 10980 10979 10979 10978 10978 10977 10976 10975 10974 10973 10970 10969 10968 10969 10969 10969 10971 10972 10970 10969 10969 10971 10971 10971 10972 10972 10971 10971 10972 10974 10975 10976 10976 10977 10978
10963 10963 10963 10963 10963 10963 10964 10964 10965 10965 10966 10967 10967 10968 10969 10969 10970 10970 10971 10971 10971 10971 10971 10971 10971 10972 10973 10973 10974 10974 10973 10974 10974 10975 10976 10975 10974 10975 10976 10977 10978 10979 10980 10981 10981 10981 10980 10979 10978 10978 10978 10978 10978 10978 10978 10978 10977 10977 10977 10976 10975 10974 10973 10971 10969 10968 10968 10968 10968 10969 10970 10969 10968 10968 10970 10970 10970 10970 10971 10971 10971 10971 10972 10973 10974 10975 10975 10976
10958 10958 10958 10958 10958 10958 10959 10959 10959 10960 10960 10961 10962 10962 10963 10964 10965 10965 10966 10966 10966 10967 10967 10966 10966 10967 10968 10967 10968 10969 10967 10969 10971 10970 10972 10972 10971 10970 10971 10973 10974 10975 10976 10977 10978 10979 10979 10978 10977 10976 10976 10976 10976 10976 10976 10976 10976 10976 10976 10975 10974 10973 10973 10972 10970 10968 10968 10967 10967 10968 10968 10968 10967 10966 10968 10969 10969 10969 10970 10970 10970 10970 10971 10972 10972 10973 10974 10975
10953 10953 10953 10953 10953 10953 10953 10954 10954 10955 10955 10956 10956 10957 10957 10958 10959 10959 10960 10961 10961 10961 10961 10961 10961 10962 10963 10962 10962 10964 10962 10964 10966 10966 10967 10968 10967 10966 10967 10969 10970 10971 10972 10973 10975 10976 10977 10976 10975 10975 10974 10974 10974 10974 10974 10974 10974 10974 10974 10974 10973 10973 10972 10971 10969 10968 10967 10966 10966 10967 10967 10967 10966 10965 10967 10968 10967 10968 10969 10969 10970 10970 10970 10971 10971 10972 10973 10974
10948 10948 10948 10947 10947 10947 10948 10948 10948 10949 10949 10950 10950 10951 10951 10952 10952 10953 10953 10954 10954 10955 10955 10955 10954 10956 10958 10956 10956 10959 10957 10958 10960 10960 10962 10963 10963 10962 10963 10965 10965 10966 10968 10969 10971 10972 10974 10974 10973 10973 10972 10972 10972 10971 10971 10972 10972 10972 10972 10972 10972 10971 10971 10970 10968 10967 10966 10965 10965 10965 10966 10966 10966 10965 10966 10967 10967 10967 10968 10969 10969 10969 10970 10970 10971 10971 10972 10973
10942 10942 10942 10941 10941 10941 10942 10942 10942 10942 10943 10943 10943 10944 10945 10945 10945 10945 10946 10946 10947 10949 10948 10947 10947 10950 10952 10949 10950 10953 10953 10953 10953 10954 10956 10958 10958 10958 10959 10960 10961 10962 10963 10965 10966 10967 10970 10972 10971 10970 10970 10970 10970 10969 10969 10969 10970 10971 10971 10970 10970 10970 10969 10969 10967 10965 10964 10964 10964 10964 10965 10965 10965 10964 10965 10966 10966 10966 10967 10968 10968 10969 10969 10970 10970 10971 10971 10972
10936 10935 10935 10935 10935 10935 10935 10935 10935 10935 10936 10937 10937 10938 10938 10937 10938 10939 10939 10939 10940 10942 10941 10939 10939 10942 10945 10943 10943 10945 10946 10948 10947 10948 10950 10951 10953 10953 10953 10955 10956 10957 10958 10960 10962 10964 10966 10967 10968 10967 10968 10968 10967 10966 10966 10966 10967 10969 10969 10968 10968 10968 10968 10968 10967 10965 10964 10963 10963 10963 10964 10964 10964 10964 10964 10965 10966 10966 10966 10967 10968 10968 10969 10969 10970 10970 10971 10971
10929 10929 10929 10928 10928 10928 10928 10928 10929 10929 10929 10930 10930 10932 10932 10930 10931 10933 10933 10933 10934 10935 10934 10932 10932 10935 10937 10937 10937 10937 10939 10942 10941 10941 10942 10944 10946 10947 10948 10949 10951 10953 10954 10955 10957 10959 10961 10962 10964 10965 10965 10965 10964 10964 10963 10962 10965 10967 10967 10966 10966 10967 10967 10967 10966 10965 10964 10963 10963 10963 10963 10963 10964 10964 10964 10964 10965 10966 10966 10966 10967 10967 10968 10969 10969 10970 10970 10971
10922 10922 10922 10921 10921 10921 10921 10921 10921 10922 10923 10923 10923 10925 10925 10924 10925 10927 10927 10927 10929 10929 10928 10926 10926 10928 10930 10930 10931 10931 10933 10936 10935 10934 10936 10938 10939 10940 10941 10944 10946 10948 10949 10950 10951 10954 10957 10958 10960 10961 10961 10961 10961 10961 10958 10959 10964 10965 10965 10965 10965 10965 10965 10966 10966 10965 10964 10963 10962 10962 10962 10963 10964 10964 10964 10964 10965 10965 10965 10966 10966 10967 10967 10968 10968 10969 10970 10970
10915 10915 10915 10915 10915 10915 10915 10914 10915 10915 10916 10918 10917 10918 10919 10918 10919 10921 10921 10922 10923 10923 10923 10921 10920 10922 10924 10924 10925 10926 10928 10929 10929 10928 10930 10931 10932 10934 10935 10937 10940 10942 10944 10945 10946 10948 10952 10954 10956 10955 10954 10956 10958 10957 10955 10957 10962 10963 10963 10963 10963 10964 10964 10964 10964 10964 10964 10963 10962 10962 10962 10962 10963 10964 10964 10963 10964 10965 10965 10965 10965 10966 10967 10967 10968 10968 10969 10970
10908 10908 10908 10908 10908 10908 10908 10908 10909 10909 10909 10911 10912 10911 10912 10912 10914 10916 10916 10917 10918 10918 10918 10916 10915 10916 10918 10918 10919 10922 10923 10923 10923 10924 10925 10926 10926 10928 10929 10932 10934 10936 10937 10939 10941 10944 10947 10950 10950 10947 10947 10952 10955 10954 10953 10955 10959 10960 10960 10960 10961 10962 10962 10962 10963 10963 10963 10963 10962 10962 10962 10962 10962 10963 10964 10963 10963 10964 10965 10965 10965 10966 10967 10967 10967 10968 10969 10970
10901 10901 10901 10901 10902 10902 10902 10901 10902 10903 10904 10905 10906 10906 10906 10906 10909 10912 10912 10911 10911 10913 10913 10912 10911 10910 10913 10914 10914 10917 10918 10916 10918 10919 10920 10921 10922 10923 10924 10926 10927 10929 10931 10934 10937 10939 10942 10943 10940 10938 10941 10947 10951 10952 10951 10953 10956 10958 10958 10958 10958 10959 10960 10960 10961 10961 10961 10962 10962 10962 10962 10962 10962 10962 10963 10963 10963 10963 10964 10965 10965 10966 10967 10967 10967 10968 10969 10970
10895 10894 10894 10894 10895 10896 10896 10896 10896 10898 10898 10899 10899 10900 10900 10901 10905 10908 10907 10904 10904 10908 10908 10907 10908 10905 10906 10911 10911 10913 10911 10910 10914 10914 10914 10916 10917 10919 10919 10920 10921 10923 10925 10927 10930 10933 10935 10934 10931 10933 10938 10942 10946 10949 10949 10950 10953 10955 10955 10956 10956 10956 10957 10958 10959 10959 10960 10961 10962 10962 10962 10962 10962 10962 10962 10963 10963 10963 10963 10964 10965 10966 10967 10967 10968 10968 10969 10970
10889 10888 10887 10887 10888 10889 10891 10890 10890 10892 10893 10893 10892 10893 10896 10898 10900 10902 10902 10899 10897 10903 10904 10902 10905 10900 10899 10907 10910 10908 10904 10906 10910 10908 10909 10912 10912 10914 10914 10915 10917 10917 10918 10920 10922 10926 10928 10926 10926 10930 10935 10937 10941 10944 10946 10948 10950 10951 10952 10952 10952 10952 10955 10956 10957 10957 10958 10960 10961 10961 10961 10961 10962 10962 10963 10963 10963 10963 10963 10964 10965 10966 10967 10967 10968 10969 10970 10971
10883 10883 10881 10880 10880 10882 10884 10885 10885 10886 10887 10886 10885 10887 10891 10893 10895 10896 10897 10896 10892 10895 10899 10899 10900 10896 10895 10902 10905 10902 10900 10902 10905 10904 10906 10907 10907 10909 10909 10911 10912 10911 10913 10915 10917 10920 10921 10920 10923 10927 10930 10932 10935 10938 10942 10945 10946 10947 10948 10948 10947 10948 10951 10953 10954 10955 10957 10959 10959 10960 10961 10961 10961 10962 10963 10964 10964 10964 10964 10964 10965 10966 10967 10968 10969 10969 10970 10972
10875 10876 10876 10874 10874 10874 10876 10879 10879 10880 10881 10880 10879 10882 10885 10887 10890 10891 10891 10893 10889 10886 10892 10897 10895 10891 10891 10897 10897 10897 10899 10897 10897 10901 10903 10902 10902 10904 10905 10906 10906 10906 10909 10911 10913 10914 10913 10915 10918 10921 10924 10926 10929 10932 10936 10939 10941 10943 10945 10943 10942 10944 10947 10950 10952 10953 10955 10956 10957 10959 10960 10961 10961 10961 10962 10963 10963 10964 10964 10964 10964 10966 10967 10968 10969 10969 10970 10971
10868 10869 10870 10868 10868 10865 10867 10872 10873 10873 10875 10874 10873 10875 10879 10881 10884 10885 10885 10889 10887 10879 10884 10892 10891 10886 10887 10890 10891 10895 10896 10890 10892 10899 10897 10896 10899 10902 10902 10901 10900 10902 10906 10908 10909 10907 10907 10909 10913 10915 10918 10920 10923 10926 10928 10931 10936 10939 10938 10936 10937 10940 10943 10946 10948 10951 10953 10953 10954 10957 10959 10960 10960 10960 10961 10962 10962 10963 10963 10963 10964 10965 10967 10968 10969 10970 10970 10971
10860 10861 10862 10862 10862 10859 10857 10862 10866 10867 10867 10868 10867 10868 10873 10875 10877 10878 10878 10883 10884 10876 10876 10883 10885 10884 10883 10884 10886 10889 10888 10885 10890 10893 10890 10892 10896 10897 10897 10896 10896 10899 10902 10905 10904 10901 10903 10905 10906 10908 10911 10915 10918 10919 10920 10924 10931 10932 10928 10930 10934 10936 10938 10941 10944 10948 10950 10950 10952 10955 10957 10959 10959 10960 10961 10961 10962 10962 10962 10963 10964 10965 10966 10967 10968 10970 10970 10971
10852 10853 10854 10854 10854 10853 10849 10851 10858 10860 10859 10861 10861 10862 10865 10868 10869 10870 10872 10877 10879 10873 10871 10874 10877 10879 10878 10878 10881 10882 10880 10881 10885 10886 10885 10889 10891 10891 10893 10892 10893 10895 10898 10900 10897 10896 10899 10900 10900 10903 10906 10910 10911 10912 10913 10919 10927 10922 10919 10927 10931 10931 10934 10936 10940 10945 10947 10949 10952 10954 10955 10957 10958 10958 10960 10961 10961 10962 10962 10963 10964 10965 10966 10966 10968 10969 10970 10971
10843 10844 10846 10845 10845 10846 10842 10842 10847 10850 10852 10853 10854 10855 10857 10859 10861 10862 10865 10871 10873 10868 10866 10866 10868 10870 10871 10873 10875 10875 10875 10876 10878 10880 10883 10886 10886 10886 10887 10887 10890 10892 10893 10894 10892 10892 10894 10895 10897 10899 10901 10903 10904 10906 10908 10915 10920 10912 10912 10924 10927 10927 10930 10932 10936 10942 10944 10948 10951 10951 10953 10954 10956 10957 10959 10959 10959 10960 10961 10963 10964 10964 10965 10965 10966 10968 10969 10970
10834 10835 10836 10836 10836 10836 10836 10836 10837 10839 10843 10846 10846 10847 10849 10850 10852 10854 10860 10865 10863 10861 10861 10858 10858 10862 10865 10867 10867 10868 10871 10871 10872 10876 10880 10881 10881 10882 10882 10883 10886 10888 10888 10890 10888 10887 10888 10891 10894 10894 10894 10896 10898 10901 10903 10909 10911 10904 10908 10920 10922 10924 10927 10928 10933 10937 10941 10948 10950 10949 10950 10951 10953 10956 10956 10956 10956 10958 10960 10961 10962 10963 10963 10964 10965 10966 10967 10968
10824 10825 10825 10826 10826 10825 10825 10829 10829 10828 10832 10837 10838 10839 10840 10842 10844 10848 10856 10855 10850 10852 10853 10849 10850 10855 10858 10859 10860 10862 10865 10865 10867 10870 10874 10876 10877 10878 10878 10879 10881 10883 10885 10886 10883 10881 10884 10888 10889 10889 10890 10891 10893 10896 10898 10901 10903 10900 10904 10912 10916 10920 10922 10924 10929 10932 10940 10947 10947 10946 10947 10948 10951 10953 10953 10953 10954 10955 10957 10958 10960 10961 10962 10963 10963 10964 10965 10967
10814 10815 10813 10814 10817 10815 10814 10819 10822 10821 10822 10826 10829 10830 10831 10833 10837 10844 10848 10843 10838 10843 10844 10840 10842 10848 10850 10851 10854 10856 10857 10859 10860 10863 10866 10869 10872 10874 10874 10874 10875 10878 10880 10879 10878 10878 10881 10882 10883 10884 10886 10886 10887 10889 10891 10894 10896 10896 10898 10903 10909 10915 10917 10922 10927 10930 10936 10942 10941 10940 10942 10945 10948 10948 10949 10951 10952 10953 10954 10956 10958 10958 10959 10961 10962 10962 10964 10965
10802 10804 10802 10801 10804 10806 10804 10806 10811 10814 10814 10814 10817 10820 10821 10825 10833 10838 10837 10831 10829 10832 10832 10832 10835 10840 10844 10847 10848 10848 10849 10851 10852 10855 10859 10862 10866 10869 10870 10870 10871 10873 10874 10873 10874 10875 10876 10877 10878 10880 10880 10879 10881 10884 10886 10888 10889 10891 10892 10896 10902 10907 10912 10920 10923 10924 10929 10933 10933 10934 10938 10943 10944 10943 10944 10947 10948 10950 10952 10954 10956 10956 10957 10958 10959 10961 10962 10964
10789 10791 10790 10787 10789 10795 10796 10796 10800 10804 10804 10803 10806 10808 10811 10819 10826 10828 10825 10821 10819 10819 10821 10825 10829 10832 10836 10840 10841 10840 10840 10841 10841 10846 10851 10854 10859 10863 10864 10865 10866 10867 10867 10868 10870 10871 10871 10873 10873 10873 10874 10874 10878 10881 10882 10883 10884 10886 10887 10890 10896 10902 10910 10916 10916 10916 10920 10922 10923 10927 10935 10941 10940 10938 10938 10941 10945 10948 10950 10952 10953 10954 10954 10955 10957 10959 10960 10961
10778 10777 10777 10773 10774 10782 10786 10786 10789 10791 10792 10793 10794 10796 10803 10811 10813 10812 10812 10810 10808 10808 10812 10817 10821 10823 10826 10830 10832 10832 10833 10831 10829 10833 10841 10848 10853 10855 10857 10858 10859 10860 10861 10864 10866 10865 10867 10868 10866 10867 10870 10871 10875 10876 10877 10879 10880 10880 10881 10886 10893 10897 10900 10904 10905 10907 10910 10912 10917 10924 10933 10937 10936 10933 10934 10938 10943 10945 10947 10949 10949 10950 10951 10953 10954 10955 10956 10957
10766 10764 10762 10758 10761 10769 10772 10774 10777 10778 10779 10781 10782 10788 10796 10799 10797 10797 10798 10798 10799 10802 10803 10804 10807 10812 10816 10819 10822 10824 10825 10823 10820 10822 10831 10839 10844 10848 10851 10851 10851 10853 10856 10857 10858 10859 10863 10862 10859 10862 10867 10868 10869 10870 10871 10875 10875 10875 10877 10881 10885 10885 10884 10891 10897 10899 10900 10907 10916 10922 10928 10932 10932 10932 10932 10935 10939 10942 10944 10946 10946 10947 10948 10949 10950 10951 10952 10953
10755 10752 10746 10742 10748 10755 10755 10760 10764 10765 10766 10767 10772 10780 10784 10784 10783 10785 10785 10786 10789 10791 10791 10790 10793 10801 10806 10808 10811 10813 10813 10814 10813 10815 10821 10828 10835 10841 10844 10845 10844 10844 10847 10850 10851 10853 10857 10857 10854 10857 10863 10863 10863 10864 10867 10870 10872 10873 10875 10874 10875 10877 10880 10888 10896 10897 10900 10908 10916 10918 10921 10927 10930 10931 10930 10931 10935 10938 10941 10943 10943 10943 10945 10945 10946 10947 10948 10950
10742 10740 10731 10726 10734 10738 10740 10745 10748 10750 10752 10755 10762 10768 10769 10770 10771 10771 10772 10773 10774 10778 10781 10781 10780 10785 10792 10797 10799 10800 10801 10805 10806 10808 10812 10817 10826 10833 10835 10838 10839 10837 10837 10840 10845 10847 10850 10852 10851 10852 10856 10857 10857 10860 10864 10866 10868 10870 10871 10867 10868 10873 10877 10882 10889 10894 10898 10904 10909 10912 10915 10920 10926 10929 10928 10928 10930 10933 10936 10939 10939 10939 10940 10941 10942 10943 10946 10947
10727 10727 10716 10712 10718 10721 10726 10732 10731 10733 10737 10743 10751 10752 10751 10754 10755 10755 10757 10759 10761 10765 10770 10773 10770 10771 10777 10784 10787 10785 10790 10797 10798 10800 10805 10808 10816 10823 10826 10829 10832 10831 10828 10830 10837 10841 10842 10846 10848 10846 10848 10850 10854 10858 10861 10862 10862 10864 10865 10864 10864 10867 10870 10874 10879 10886 10890 10893 10899 10905 10908 10914 10921 10923 10923 10924 10925 10926 10929 10932 10933 10934 10936 10937 10938 10940 10942 10944
10711 10711 10699 10695 10704 10707 10711 10715 10714 10716 10722 10728 10734 10733 10734 10737 10738 10740 10742 10744 10748 10751 10756 10761 10761 10762 10764 10767 10771 10771 10775 10784 10787 10790 10799 10803 10807 10812 10815 10818 10822 10824 10821 10822 10828 10833 10835 10841 10843 10841 10841 10845 10851 10855 10855 10856 10856 10857 10859 10861 10860 10861 10864 10868 10873 10878 10883 10887 10891 10897 10903 10909 10913 10913 10915 10918 10918 10919 10922 10925 10928 10930 10932 10933 10934 10935 10937 10940
10692 10693 10681 10679 10691 10694 10693 10695 10696 10700 10705 10711 10714 10715 10718 10721 10722 10726 10727 10728 10732 10736 10740 10745 10750 10754 10752 10751 10755 10755 10757 10768 10775 10779 10789 10796 10800 10803 10804 10806 10810 10813 10814 10816 10821 10825 10828 10834 10836 10834 10836 10842 10846 10846 10847 10851 10852 10852 10854 10856 10857 10857 10860 10864 10869 10872 10876 10881 10884 10888 10896 10903 10903 10903 10906 10910 10911 10913 10915 10918 10922 10925 10927 10928 10929 10930 10932 10934
10673 10673 10662 10663 10676 10678 10674 10675 10678 10681 10685 10692 10696 10697 10699 10703 10707 10711 10711 10711 10716 10719 10722 10729 10736 10741 10739 10738 10740 10738 10739 10750 10761 10768 10778 10786 10791 10795 10794 10792 10796 10802 10807 10811 10815 10815 10817 10822 10828 10830 10833 10836 10838 10839 10842 10846 10848 10849 10850 10850 10851 10855 10858 10861 10863 10864 10867 10874 10878 10880 10888 10897 10898 10896 10899 10902 10904 10907 10909 10912 10916 10920 10922 10924 10924 10925 10927 10929
10652 10650 10643 10646 10658 10660 10657 10657 10657 10659 10665 10674 10677 10677 10682 10687 10691 10695 10696 10696 10699 10702 10706 10713 10719 10722 10725 10726 10724 10721 10724 10735 10747 10758 10766 10773 10779 10784 10784 10782 10785 10791 10798 10806 10808 10805 10805 10814 10823 10826 10826 10829 10832 10835 10838 10840 10842 10845 10848 10846 10845 10850 10854 10855 10857 10857 10859 10867 10871 10873 10883 10893 10893 10891 10892 10894 10896 10900 10903 10906 10909 10913 10917 10919 10919 10920 10922 10924
10630 10628 10623 10627 10638 10642 10639 10636 10635 10638 10646 10654 10657 10658 10665 10671 10673 10676 10679 10680 10682 10686 10692 10698 10700 10701 10707 10710 10709 10709 10711 10718 10733 10744 10751 10759 10766 10771 10772 10773 10778 10784 10790 10797 10799 10796 10797 10806 10814 10818 10819 10823 10827 10830 10834 10836 10837 10839 10841 10840 10838 10841 10845 10848 10851 10851 10854 10860 10863 10867 10877 10884 10882 10880 10881 10884 10888 10892 10895 10899 10902 10906 10910 10913 10913 10915 10917 10918
10610 10607 10602 10605 10617 10624 10619 10612 10614 10619 10624 10631 10636 10641 10647 10652 10654 10656 10659 10663 10668 10671 10676 10681 10681 10681 10688 10693 10697 10701 10697 10701 10718 10728 10734 10745 10754 10757 10759 10766 10774 10778 10780 10785 10786 10786 10790 10797 10803 10810 10815 10819 10822 10825 10828 10829 10829 10831 10832 10834 10833 10832 10837 10843 10845 10847 10852 10855 10855 10862 10870 10870 10869 10871 10872 10875 10879 10882 10886 10892 10897 10900 10903 10906 10908 10910 10912 10912
10588 10587 10583 10582 10592 10603 10599 10590 10593 10599 10602 10607 10615 10622 10626 10629 10633 10636 10640 10646 10653 10653 10654 10661 10663 10663 10669 10677 10685 10688 10681 10685 10704 10712 10717 10729 10739 10743 10750 10758 10765 10767 10770 10772 10773 10776 10784 10789 10795 10804 10810 10814 10815 10815 10816 10817 10820 10824 10826 10828 10828 10825 10829 10836 10841 10846 10850 10848 10848 10857 10860 10859 10862 10866 10866 10867 10870 10873 10877 10884 10889 10893 10896 10898 10901 10904 10906 10907
10563 10564 10562 10559 10564 10574 10576 10570 10570 10575 10578 10583 10591 10599 10603 10606 10610 10616 10620 10623 10629 10631 10632 10641 10645 10644 10649 10660 10669 10672 10668 10674 10690 10697 10700 10712 10723 10730 10738 10745 10750 10754 10759 10760 10760 10767 10775 10782 10791 10796 10800 10806 10806 10803 10805 10808 10813 10818 10820 10822 10822 10819 10820 10829 10838 10843 10841 10840 10845 10849 10850 10853 10856 10859 10860 10859 10860 10864 10871 10876 10880 10885 10888 10891 10893 10895 10898 10900
10536 10536 10535 10536 10537 10541 10546 10548 10548 10550 10552 10556 10565 10573 10577 10581 10586 10593 10596 10599 10606 10611 10612 10619 10623 10621 10630 10644 10653 10658 10660 10666 10676 10681 10687 10698 10707 10714 10722 10728 10734 10740 10745 10748 10750 10755 10763 10774 10784 10786 10787 10794 10795 10793 10795 10800 10806 10811 10813 10816 10818 10815 10815 10821 10831 10835 10833 10836 10842 10840 10841 10848 10851 10851 10854 10852 10851 10856 10864 10869 10873 10877 10881 10883 10886 10889 10892 10895
10505 10506 10505 10508 10510 10510 10514 10519 10521 10523 10524 10526 10535 10545 10550 10554 10561 10567 10572 10577 10585 10589 10589 10594 10597 10599 10615 10632 10638 10643 10650 10655 10662 10668 10675 10682 10689 10696 10703 10710 10717 10723 10730 10736 10738 10742 10752 10766 10773 10775 10777 10780 10783 10786 10788 10790 10797 10803 10805 10809 10811 10812 10812 10814 10820 10826 10829 10833 10836 10833 10836 10843 10844 10845 10848 10846 10844 10848 10857 10863 10869 10872 10874 10876 10881 10885 10888 10891
10474 10474 10474 10477 10479 10479 10482 10486 10489 10494 10497 10496 10501 10512 10520 10527 10533 10539 10545 10552 10560 10563 10563 10566 10571 10580 10600 10616 10620 10625 10634 10640 10647 10656 10662 10667 10673 10679 10684 10692 10700 10706 10713 10720 10722 10727 10743 10756 10761 10763 10766 10769 10774 10777 10778 10782 10788 10793 10797 10802 10805 10807 10809 10809 10811 10817 10823 10827 10828 10828 10832 10837 10838 10838 10841 10841 10841 10843 10849 10856 10863 10866 10868 10870 10874 10878 10881 10884
10445 10445 10447 10448 10448 10449 10452 10455 10458 10464 10468 10466 10469 10479 10489 10496 10501 10508 10516 10524 10532 10536 10535 10538 10547 10560 10579 10593 10599 10606 10614 10622 10633 10642 10647 10653 10659 10664 10669 10677 10685 10690 10697 10703 10704 10711 10727 10741 10748 10750 10753 10762 10768 10767 10770 10775 10775 10778 10788 10796 10799 10802 10805 10805 10805 10808 10813 10819 10821 10824 10830 10832 10831 10832 10836 10839 10839 10840 10842 10846 10852 10858 10861 10862 10865 10869 10874 10878
10422 10421 10424 10424 10421 10422 10427 10431 10433 10437 10439 10440 10444 10450 10456 10464 10471 10478 10486 10492 10500 10507 10509 10511 10521 10536 10553 10566 10576 10585 10591 10602 10617 10627 10632 10640 10647 10652 10659 10665 10669 10675 10683 10687 10690 10697 10709 10722 10732 10736 10742 10754 10759 10758 10761 10760 10756 10767 10785 10791 10792 10797 10799 10799 10798 10799 10803 10809 10815 10822 10826 10825 10824 10827 10833 10836 10836 10835 10835 10836 10840 10845 10849 10853 10856 10860 10865 10869